weather.gov     
National Weather Service

Weather Roundup
NWS Homepage
This page is being discontinued on March 12, 2014.
The same data is available at this site. Please update your bookmarks.
Thank you, and we apologize for the inconvenience.
Please send an email to SR-SRH.Webmaster@noaa.gov with any concerns.


Current Version
Previous Version:    01  02  03  04  05  06  07  08  09  10  11  12  13  14  15  16  17  18  19  20  21  22  23  24  25  26  27  28  29  30  
   31  32  33  34  35  36  37  38  39  40  41  42  43  44  45  46  47  48  49  50  51  52  53  54  55  56  57  58  59  60  
[Printable]
721
ASUS44 KCRP 211610
HRRCRP

SOUTH TEXAS REGIONAL WEATHER ROUNDUP
NATIONAL WEATHER SERVICE CORPUS CHRISTI TX
1100 AM CDT TUE OCT 21 2014


TXZ229>244-211700-
...CORPUS CHRISTI AREA OBSERVATIONS...

CITY           SKY/WX    TMP DP  RH WIND       PRES   REMARKS
CORPUS CHRISTI MOSUNNY   77  69  76 NE15      30.02S
NAS CORPUS CHR MOSUNNY   77  72  84 NE20      30.01R
ROCKPORT       SUNNY     79  68  69 NE10      30.02S
KINGSVILLE NAS PTSUNNY   80  72  76 NE15      30.01S
ALICE          MOSUNNY   79  68  69 NE14      30.02S
FALFURRIAS     CLOUDY    73  70  91 NE6       30.01S
$$

...VICTORIA AREA OBSERVATIONS...

CITY           SKY/WX    TMP DP  RH WIND       PRES   REMARKS
VICTORIA       SUNNY     79  63  57 NE9       30.05F
BEEVILLE       FAIR      78  63  58 E10       30.05R
PLEASANTON     SUNNY     77  60  55 NE9       30.07F
SAN ANTONIO    MOSUNNY   75  59  57 E10       30.09S
$$

...LAREDO AREA OBSERVATIONS...

CITY           SKY/WX    TMP DP  RH WIND       PRES   REMARKS
LAREDO         MOSUNNY   78  68  71 E13       30.05S
COTULLA        SUNNY     79  63  57 E10       30.05S
DEL RIO        CLOUDY    73  64  73 E9        30.06F
MCALLEN        LGT RAIN  78  71  79 N6        29.99R
HEBBRONVILLE   MOSUNNY   76  67  75 NE13      30.04S
$$

...OTHER TEXAS OBSERVATIONS...

CITY           SKY/WX    TMP DP  RH WIND       PRES   REMARKS
BROWNSVILLE    LGT RAIN  83  72  69 E12       29.96S
HOUSTON        SUNNY     73  55  53 E8        30.08S
COL. STATION   SUNNY     72  55  55 E6        30.10S
AUSTIN         MOSUNNY   71  59  65 E3        30.10S
WACO           SUNNY     71  59  65 CALM      30.11F
FORT WORTH     MOSUNNY   73  60  63 SW3       30.12S
WICHITA FALLS  SUNNY     74  58  57 SW7       30.10S
LUBBOCK        MOSUNNY   66  54  65 VRB3      30.15S
EL PASO        MOSUNNY   64  53  67 NE5       30.10S
$$

...MARINE OBSERVATIONS...

STATION/POSITION TIME  SKY/WX   TEMP    WIND        PRES    VSBY  WAVE   SWELL
                                AIR SEA DIR/SP/G                  HT/PER HT/PER
                 (UTC)          (F)     (DEG/KT/KT) (MB)    (MI)  (FT/S) (FT/S)
PORT ARANSAS     1600            75 78   20/ 18/ 18 1016.6R
BUOY 90 E PORT A 1600            78 81   60/ 16/ 17 1016.2R         5/ 7
BUOY 45 SE BAFFI 1600            80 81   70/ 17/ 21 1014.5R         6/ 6
BUOY 200 E PT IS 1600            81 81   80/ 17/ 19 1013.4R         6/ 7
BUOY 15 E GALVES 1600            74 78   80/ 14/ 17 1017.2R         3/ 4
$$




U.S. Dept. of Commerce
NOAA National Weather Service
1325 East West Highway
Silver Spring, MD 20910
E-mail: w-nws.webmaster@noaa.gov
Page last modified: May 16, 2007
NATIONAL WEATHER SERVICE: for Safety, for Work, for Fun - FOR LIFE